Regional Weather Roundup
Issued by NWS

Home | Current Version | Previous Version | Graphics & Text | Print | Product List | Glossary On
Versions: 1 2 3 4 5 6 7 8 9 10 11 12 13 14 15 16 17 18 19 20 21 22 23 24 25 26 27 28 29 30 31 32 33 34 35 36 37 38 39 40 41 42 43 44 45 46 47 48 49 50
000
ASUS43 KLMK 202202
RWRKY
KENTUCKY REGIONAL WEATHER ROUNDUP
NATIONAL WEATHER SERVICE LOUISVILLE KY
600 PM EDT SUN AUG 20 2017

NOTE "FAIR" INDICATES FEW OR NO CLOUDS BELOW 12,000 FEET
WITH NO SIGNIFICANT WEATHER AND/OR OBSTRUCTIONS TO VISIBILITY.

KYZ001>023-026-027-061>063-070>075-202300-
WESTERN AND SOUTH CENTRAL KENTUCKY

CITY           SKY/WX    TMP DP  RH WIND       PRES   REMARKS
PADUCAH        PTSUNNY   89  69  51 S3        30.04R HX  93
HENDERSON      CLOUDY    90  71  53 S6        30.03R HX  96
OWENSBORO      SUNNY     90  69  50 S7        30.04R HX  94
HOPKINSVILLE   CLOUDY    91  64  41 SW8       30.05S HX  92
BOWLING GREEN  MOSUNNY   90  69  50 E3        30.06S HX  94
GLASGOW        SUNNY     92  62  36 SW3       30.07S HX  92
$$

KYZ024-025-028>034-038-045-046-053-202300-
NORTH CENTRAL KENTUCKY

CITY           SKY/WX    TMP DP  RH WIND       PRES   REMARKS
LOUISVILLE/SDF MOSUNNY   93  66  40 SW7       30.03S HX  96
LOUISVILLE/LOU MOSUNNY   91  68  46 W8G16     30.04S HX  95
FORT KNOX      SUNNY     91  66  43 S5        30.04S HX  93
$$

KYZ035>037-039>044-047>052-055>060-089>105-202300-
NORTHEAST KENTUCKY

CITY           SKY/WX    TMP DP  RH WIND       PRES   REMARKS
LEXINGTON      MOSUNNY   87  66  49 SW5       30.08R
COVINGTON      MOSUNNY   87  69  54 S10       30.06S HX  91
FRANKFORT      PTSUNNY   87  65  47 SW6       30.06S
$$

KYZ054-064>069-076>088-106>120-202300-
SOUTHEAST KENTUCKY

CITY           SKY/WX    TMP DP  RH WIND       PRES   REMARKS
JACKSON        SUNNY     86  66  51 CALM      30.12R
LONDON         SUNNY     88  59  37 W5        30.11S
SOMERSET       NOT AVBL
MIDDLESBORO    CLOUDY    82  73  75 SW5       30.12R
MONTICELLO     NOT AVBL
$$




USA.gov is the U.S. government's official web portal to all federal, state and local government web resources and services.